TimeCDT,TemperatureF,Dew PointF,Humidity,Sea Level PressureIn,VisibilityMPH,Wind Direction,Wind SpeedMPH,Gust SpeedMPH,PrecipitationIn,Events,Conditions,WindDirDegrees,DateUTC
12:56 AM,60.1,37.9,44,29.87,10.0,East,4.6,-,N/A,,Overcast,80,2013-03-23 05:56:00
1:56 AM,60.1,37.9,44,29.86,10.0,East,4.6,-,N/A,,Overcast,100,2013-03-23 06:56:00
2:56 AM,60.1,37.9,44,29.83,10.0,East,4.6,-,N/A,,Overcast,100,2013-03-23 07:56:00
3:56 AM,61.0,41.0,48,29.79,10.0,East,5.8,-,N/A,,Overcast,100,2013-03-23 08:56:00
4:51 AM,60.8,42.8,52,29.84,10.0,East,4.6,-,N/A,,Overcast,90,2013-03-23 09:51:00
4:56 AM,60.1,42.1,51,29.80,10.0,East,4.6,-,N/A,,Overcast,80,2013-03-23 09:56:00
5:56 AM,60.1,43.0,53,29.81,10.0,East,3.5,-,0.00,,Overcast,80,2013-03-23 10:56:00
6:56 AM,60.1,45.0,57,29.82,10.0,SE,4.6,-,N/A,,Overcast,130,2013-03-23 11:56:00
7:56 AM,61.0,46.9,60,29.82,10.0,SE,6.9,-,N/A,,Overcast,140,2013-03-23 12:56:00
8:14 AM,62.6,48.2,59,29.84,10.0,SE,10.4,-,N/A,,Overcast,140,2013-03-23 13:14:00
8:56 AM,64.9,55.9,73,29.79,7.0,SSE,12.7,-,N/A,,Overcast,150,2013-03-23 13:56:00
9:38 AM,66.2,57.2,73,29.85,7.0,ENE,4.6,-,N/A,,Overcast,70,2013-03-23 14:38:00
9:56 AM,66.9,57.9,73,29.81,7.0,ENE,3.5,-,N/A,,Overcast,70,2013-03-23 14:56:00
10:56 AM,68.0,55.9,65,29.81,9.0,ENE,3.5,-,N/A,,Overcast,60,2013-03-23 15:56:00
11:30 AM,69.8,57.2,64,29.84,9.0,NE,3.5,-,N/A,,Overcast,40,2013-03-23 16:30:00
11:56 AM,70.0,57.0,63,29.78,9.0,East,5.8,-,N/A,,Overcast,80,2013-03-23 16:56:00
12:48 PM,73.4,59.0,61,29.80,9.0,East,6.9,-,N/A,Thunderstorm,Thunderstorm,80,2013-03-23 17:48:00
12:56 PM,73.0,59.0,61,29.76,9.0,ENE,4.6,-,N/A,Thunderstorm,Thunderstorm,70,2013-03-23 17:56:00
1:26 PM,69.8,59.0,68,29.78,9.0,NE,6.9,-,N/A,,Overcast,50,2013-03-23 18:26:00
1:56 PM,68.0,57.9,70,29.73,8.0,NE,4.6,-,N/A,,Overcast,50,2013-03-23 18:56:00
2:13 PM,68.0,57.2,68,29.77,8.0,NE,5.8,-,0.00,Thunderstorm,Thunderstorm,50,2013-03-23 19:13:00
2:33 PM,64.4,59.0,83,29.77,1.8,NNE,4.6,-,0.05,Rain-Thunderstorm,Heavy Thunderstorms and Rain,30,2013-03-23 19:33:00
2:43 PM,64.4,59.0,83,29.76,1.2,ENE,4.6,-,0.13,Rain-Thunderstorm,Heavy Thunderstorms and Rain,60,2013-03-23 19:43:00
2:52 PM,64.4,59.0,83,29.75,0.8,Variable,3.5,-,0.18,Rain-Thunderstorm,Heavy Thunderstorms and Rain,0,2013-03-23 19:52:00
2:56 PM,63.0,59.0,87,29.72,1.0,Calm,Calm,-,0.22,Rain-Thunderstorm,Heavy Thunderstorms and Rain,0,2013-03-23 19:56:00
3:04 PM,64.4,60.8,88,29.75,0.5,Calm,Calm,-,0.12,Fog-Rain-Thunderstorm,Heavy Thunderstorms and Rain,0,2013-03-23 20:04:00
3:14 PM,64.4,60.8,88,29.73,2.0,East,8.1,-,0.13,Rain-Thunderstorm,Light Thunderstorms and Rain,100,2013-03-23 20:14:00
3:23 PM,64.4,62.6,94,29.73,4.0,East,4.6,-,0.13,Thunderstorm,Mostly Cloudy,90,2013-03-23 20:23:00
3:35 PM,64.4,62.6,94,29.76,4.0,Calm,Calm,-,0.13,Thunderstorm,Overcast,0,2013-03-23 20:35:00
3:43 PM,64.4,64.4,100,29.75,4.0,North,3.5,-,0.13,,Overcast,10,2013-03-23 20:43:00
3:56 PM,64.9,63.0,93,29.72,4.0,North,4.6,-,0.13,,Overcast,360,2013-03-23 20:56:00
4:19 PM,66.2,62.6,88,29.74,5.0,ENE,5.8,-,N/A,,Overcast,70,2013-03-23 21:19:00
4:47 PM,66.2,62.6,88,29.72,5.0,East,9.2,-,N/A,,Overcast,90,2013-03-23 21:47:00
4:56 PM,66.0,63.0,90,29.68,5.0,East,6.9,-,N/A,,Overcast,90,2013-03-23 21:56:00
5:20 PM,66.2,62.6,88,29.71,5.0,East,9.2,-,N/A,,Overcast,90,2013-03-23 22:20:00
5:27 PM,66.2,62.6,88,29.71,5.0,East,9.2,-,N/A,,Overcast,100,2013-03-23 22:27:00
5:39 PM,66.2,60.8,83,29.71,5.0,East,6.9,-,N/A,,Haze,90,2013-03-23 22:39:00
5:56 PM,64.9,61.0,87,29.67,5.0,East,8.1,-,N/A,,Overcast,90,2013-03-23 22:56:00
6:56 PM,64.0,60.1,87,29.66,5.0,ESE,9.2,-,0.00,,Overcast,110,2013-03-23 23:56:00
7:41 PM,62.6,60.8,94,29.68,7.0,ESE,10.4,-,N/A,,Overcast,110,2013-03-24 00:41:00
7:56 PM,63.0,59.0,87,29.64,7.0,ESE,9.2,-,N/A,,Overcast,110,2013-03-24 00:56:00
8:56 PM,62.1,59.0,90,29.63,5.0,ESE,8.1,-,0.00,Rain,Light Rain,120,2013-03-24 01:56:00
9:56 PM,63.0,62.1,97,29.62,5.0,SE,5.8,-,0.00,Rain,Light Rain,130,2013-03-24 02:56:00
10:56 PM,64.9,62.1,90,29.60,5.0,SE,11.5,-,0.00,Rain,Light Rain,130,2013-03-24 03:56:00
11:56 PM,66.0,64.0,93,29.57,3.0,South,6.9,-,0.00,,Overcast,190,2013-03-24 04:56:00